SBIRS GEO-3 (USA 282)

Last updated on Jan. 29, 2020, 4:37 a.m. UTC

1 43162U 18009A   20028.74246323 -.00000289  00000-0  00000-0 0  9997
2 43162   5.2223 317.5055 0001624 346.7026 229.5217  1.00271909  7463
UTC
Height (km)
Latitude
Longitude
Inclination
Orbital Period
UTC large
Height (km)
Speed (km/s)
/
Latitude / Longitude
Inclination (degrees)
Orbital Period (minutes)
Azimuth
Elevation
Range (km)
Doppler Factor
iOS Compass Heading
iOS Angle

Next 30 passes for location: Hong Kong

Rise time Rise Azimuth (degrees) Set time Set Azimuth (degrees) Duration Max altitude (degrees)

No matching passes for this satellites